Location: *
(58.4167°N, 22.5000°E)
Time: 05:30:41
(UTC+00:00)

Cosmos 1441 Rocket - Pass Details

Date: 22 September 2019
Orbit: 496 x 541 km, 81.1° (Epoch: 16 October)

Event Time Altitude Azimuth Distance (km) Brightness Sun altitude
Rises 17:11:21 0° 184° (S) 2,611 6.7 -6.1°
Reaches altitude 10° 17:13:30 10° 181° (S) 1,723 5.8 -6.4°
Maximum altitude 17:17:13 60° 102° (ESE) 581 3.2 -6.9°
Drops below altitude 10° 17:20:56 10° 21° (NNE) 1,720 5.8 -7.4°
Sets 17:23:04 0° 18° (NNE) 2,605 6.7 -7.6°
